TimeCDT,TemperatureF,Dew PointF,Humidity,Sea Level PressureIn,VisibilityMPH,Wind Direction,Wind SpeedMPH,Gust SpeedMPH,PrecipitationIn,Events,Conditions,WindDirDegrees,DateUTC
12:58 AM,68.5,59.4,72,29.68,10.0,ESE,21.9,27.6,N/A,,Clear,120,2013-05-01 05:58:00
1:58 AM,68.9,59.7,72,29.66,10.0,ESE,23.0,28.8,N/A,,Clear,120,2013-05-01 06:58:00
2:58 AM,68.4,59.9,74,29.65,10.0,SE,19.6,-,N/A,,Clear,130,2013-05-01 07:58:00
3:58 AM,66.4,60.8,82,29.66,10.0,SE,17.3,23.0,N/A,,Clear,130,2013-05-01 08:58:00
4:58 AM,64.9,61.0,87,29.68,10.0,SE,12.7,-,N/A,,Partly Cloudy,140,2013-05-01 09:58:00
5:58 AM,63.0,61.5,95,29.71,10.0,SE,9.2,-,N/A,,Partly Cloudy,130,2013-05-01 10:58:00
6:58 AM,62.4,62.1,99,29.72,10.0,ESE,11.5,-,N/A,,Partly Cloudy,120,2013-05-01 11:58:00
7:58 AM,65.7,62.2,89,29.75,10.0,SE,16.1,-,N/A,,Scattered Clouds,130,2013-05-01 12:58:00
8:58 AM,70.9,62.6,75,29.78,10.0,SE,16.1,-,N/A,,Clear,140,2013-05-01 13:58:00
9:58 AM,74.5,63.5,68,29.77,10.0,SSE,19.6,-,N/A,,Clear,150,2013-05-01 14:58:00
10:58 AM,79.7,63.7,58,29.78,10.0,South,12.7,21.9,N/A,,Clear,170,2013-05-01 15:58:00
11:58 AM,83.1,63.3,51,29.79,10.0,South,12.7,-,N/A,,Partly Cloudy,190,2013-05-01 16:58:00
12:23 PM,84.2,60.8,45,29.84,10.0,SSW,6.9,-,N/A,,Mostly Cloudy,200,2013-05-01 17:23:00
12:53 PM,82.4,60.8,48,29.84,10.0,West,9.2,-,N/A,,Overcast,260,2013-05-01 17:53:00
12:59 PM,82.8,60.1,46,29.80,10.0,West,9.2,-,N/A,,Overcast,260,2013-05-01 17:59:00
1:58 PM,83.5,60.1,45,29.81,10.0,NNW,8.1,-,N/A,,Mostly Cloudy,330,2013-05-01 18:58:00
2:03 PM,84.2,60.8,45,29.85,10.0,NW,9.2,-,N/A,,Mostly Cloudy,320,2013-05-01 19:03:00
2:58 PM,84.0,60.4,45,29.82,10.0,NNE,4.6,-,N/A,,Mostly Cloudy,30,2013-05-01 19:58:00
3:13 PM,84.2,60.8,45,29.86,9.0,WNW,6.9,-,N/A,,Mostly Cloudy,300,2013-05-01 20:13:00
3:58 PM,83.3,59.4,44,29.84,10.0,North,26.5,31.1,N/A,Thunderstorm,Mostly Cloudy,360,2013-05-01 20:58:00
4:58 PM,74.3,54.3,50,29.89,10.0,North,27.6,33.4,N/A,Thunderstorm,Scattered Clouds,360,2013-05-01 21:58:00
5:03 PM,71.6,53.6,53,29.91,10.0,NNW,32.2,-,N/A,,Mostly Cloudy,340,2013-05-01 22:03:00
5:38 PM,66.2,51.8,60,29.94,10.0,North,26.5,35.7,N/A,,Mostly Cloudy,360,2013-05-01 22:38:00
5:58 PM,64.4,50.0,59,29.93,10.0,North,28.8,38.0,N/A,,Mostly Cloudy,360,2013-05-01 22:58:00
6:19 PM,59.0,48.2,67,29.99,10.0,North,24.2,33.4,N/A,,Mostly Cloudy,360,2013-05-01 23:19:00
6:39 PM,59.0,46.4,63,30.00,10.0,North,26.5,32.2,N/A,,Mostly Cloudy,350,2013-05-01 23:39:00
6:49 PM,59.0,46.4,63,29.99,10.0,NNW,28.8,33.4,N/A,,Partly Cloudy,340,2013-05-01 23:49:00
6:58 PM,57.9,46.4,65,29.99,10.0,North,24.2,33.4,N/A,,Scattered Clouds,360,2013-05-01 23:58:00
7:03 PM,57.2,46.4,67,30.01,10.0,North,23.0,31.1,N/A,,Mostly Cloudy,350,2013-05-02 00:03:00
7:18 PM,55.4,44.6,67,30.03,10.0,NNW,25.3,-,N/A,,Mostly Cloudy,340,2013-05-02 00:18:00
7:28 PM,55.4,44.6,67,30.03,10.0,NNW,26.5,-,N/A,,Overcast,340,2013-05-02 00:28:00
7:58 PM,52.9,43.5,71,30.04,10.0,North,26.5,34.5,N/A,,Mostly Cloudy,360,2013-05-02 00:58:00
8:13 PM,51.8,42.8,71,30.05,10.0,North,21.9,-,N/A,,Mostly Cloudy,360,2013-05-02 01:13:00
8:58 PM,49.8,41.4,73,30.06,10.0,North,29.9,38.0,N/A,,Overcast,360,2013-05-02 01:58:00
9:58 PM,47.5,39.9,75,30.10,10.0,North,24.2,40.3,N/A,,Overcast,10,2013-05-02 02:58:00
10:58 PM,46.0,38.7,75,30.15,10.0,North,25.3,35.7,N/A,,Overcast,360,2013-05-02 03:58:00
11:58 PM,44.4,36.9,75,30.16,10.0,North,25.3,38.0,N/A,,Overcast,360,2013-05-02 04:58:00